Location: San Vero Congius
(39.9400°N, 8.7208°E)
Time: 01:17:14
(UTC+00:00)

Daily predictions for brighter satellites

Satellite Brightness Start Highest point End
(mag) Time Altitude Azimuth Time Altitude Azimuth Time Altitude Azimuth
Cosmos 2344 4.3 02:53:31 42° NE 02:53:31 42° NE 02:58:18 10° NE
USA 238 DEB 4.3 03:12:40 48° E 03:12:40 48° E 03:17:57 10° NE
USA 238 4.3 03:12:43 48° E 03:12:43 48° E 03:18:02 10° NE
Cosmos 2369 Rocket 3.8 03:31:01 10° SSE 03:35:51 31° ESE 03:40:42 10° NE
Cosmos 1867 3.9 03:50:15 60° NE 03:50:18 61° NE 03:55:41 10° SE
Tsikada Rocket 4.2 03:44:19 10° S 03:50:26 69° E 03:56:40 10° NNE
Cosmos 1943 Rocket 2.7 04:06:38 44° N 04:06:38 44° N 04:10:39 10° NNE
CZ-2C R/B 3.8 04:01:51 10° SE 04:06:59 42° ENE 04:12:03 10° N
Cosmos 2082 Rocket 3.9 04:15:38 17° SSW 04:15:38 17° SSW 04:17:08 10° SSW
Cosmos 1241 Rocket 4.5 04:10:32 41° NNW 04:12:50 76° ENE 04:19:02 10° SE
CENTAUR R/B 2.8 04:16:08 47° NW 04:16:08 47° NW 04:22:27 10° NNE
Cosmos 2297 4.2 04:21:06 43° NNW 04:21:06 43° NNW 04:25:32 10° NNE
Iridium 2 4.4 04:21:18 10° SSE 04:24:59 53° E 04:28:41 10° NNE
NOSS 3-2 (A) 4.3 04:27:49 30° NNW 04:27:49 30° NNW 04:32:41 10° NNE
SKYMED 2 3.8 04:29:29 10° SSE 04:33:48 68° ENE 04:37:12 16° N
NOSS 3-2 (C) 3.5 04:33:36 44° WNW 04:34:19 46° NW 04:40:24 10° NNE
DELTA 2 R/B (1) 4.0 04:33:01 30° SW 04:35:39 58° SSE 04:41:05 10° E
Envisat 2.9 04:32:21 10° NNE 04:37:28 85° WNW 04:42:33 10° SSW
Cosmos 2098 Rocket 2.8 04:36:16 10° S 04:39:53 83° E 04:44:29 10° N
Meteor 2-3 Rocket 3.9 04:35:07 10° SSW 04:40:29 45° WNW 04:45:59 10° N
Landsat 5 4.0 04:38:58 10° SSE 04:43:26 67° ENE 04:47:53 10° N
Cosmos 968 Rocket 3.7 04:42:39 36° WSW 04:44:02 45° WNW 04:48:58 10° N
BREEZE-M DEB (TANK) 4.3 04:31:15 22° WNW 04:44:47 82° SW 04:50:21 10° SE
Meteor 2-13 Rocket 4.3 04:38:47 10° SSW 04:44:51 67° W 04:50:56 10° N
CZ-4B R/B 4.0 04:45:28 10° N 04:49:56 77° WNW 04:54:23 10° SSW
Genesis I 3.2 04:49:24 43° NW 04:50:37 72° WSW 04:54:38 10° SSE
Okean 3 Rocket 3.7 04:46:59 10° S 04:51:29 81° E 04:56:03 10° N
Cosmos 921 Rocket 2.9 04:50:36 26° NNW 04:53:03 70° WSW 04:57:30 10° S
ATLAS 5 CENTAUR R/B 4.0 04:50:39 10° SSE 04:53:29 20° ESE 04:56:29 10° ENE
H-2A R/B 4.2 04:50:48 10° ESE 04:54:16 25° ENE 04:57:48 10° NNE
Cosmos 1812 2.6 04:56:57 21° NNW 04:59:24 64° W 05:03:10 10° S
CBERS 1 LM4 rocket 4.4 04:55:49 10° N 05:00:38 62° WNW 05:05:35 10° SSW
ADEOS 3.7 04:55:46 10° NNE 05:01:01 80° ESE 05:06:14 10° S
Cosmos 1354 Rocket 4.3 04:56:23 10° S 05:01:36 72° ESE 05:06:54 10° NNE
Gbstr 26 Del rocket 3.8 05:01:04 27° WSW 05:01:54 29° SW 05:05:40 10° SSE
USA 238 DEB 4.3 05:00:10 25° W 05:02:40 32° NW 05:08:43 10° NNE
USA 238 4.3 05:00:13 25° W 05:02:46 32° NW 05:08:49 10° NNE
Cosmos 1766 Rocket 3.4 05:00:25 10° SSW 05:04:42 62° W 05:09:01 10° N
Cosmos 2263 4.2 05:00:08 10° SSW 05:05:45 64° WNW 05:11:29 10° NNE
Cosmos 2344 4.5 05:03:35 21° WNW 05:06:06 25° NNW 05:12:30 10° NNE
Cosmos 1151 Rocket 3.0 05:01:56 10° NNW 05:06:17 64° W 05:10:36 10° S
Cosmos 2142 Rocket 4.5 04:59:57 10° N 05:06:18 77° W 05:12:39 10° S
USA 215 3.3 05:00:51 10° SE 05:07:22 78° NE 05:13:04 14° NW
CZ-2C R/B 3.5 05:04:09 10° NNE 05:08:59 62° E 05:14:02 10° S
Meteor PRIRODA 3.9 05:10:37 10° NNE 05:14:13 71° ESE 05:17:49 10° S
IRAS Rocket 4.4 05:10:01 10° SSE 05:15:30 76° ENE 05:21:00 10° NNW
Meteor 1-31 Rocket 3.3 05:12:09 10° N 05:15:44 36° WNW 05:19:19 10° SW
Cosmos 1782 4.0 05:15:55 22° W 05:15:58 22° W 05:19:02 10° SW
Cosmos 2279 Rocket 3.9 05:10:54 10° NNW 05:17:01 67° W 05:23:08 10° S
BREEZE-M DEB (TANK) 3.7 05:01:20 10° SW 05:17:13 88° NNW 05:21:08 10° ENE
Cosmos 1328 Rocket 3.5 05:14:37 10° NNW 05:18:58 67° W 05:23:16 10° S
Cosmos 2369 Rocket 2.7 05:14:39 10° SW 05:19:44 35° WNW 05:24:52 10° N
Cosmos 1862 3.7 05:17:23 10° SSW 05:21:04 38° WNW 05:24:46 10° N
COSMO-SKYMED 1 3.2 05:18:00 10° SSW 05:21:56 33° W 05:25:48 10° NNW
Nadezhda 4 Rocket 4.1 05:17:50 10° S 05:23:57 79° E 05:30:11 10° N
SMAP 4.2 05:20:13 10° NNE 05:24:43 47° E 05:29:11 10° S
H-2A R/B 4.1 05:26:28 10° NNW 05:28:59 18° WNW 05:31:31 10° WSW
H-2A R/B 4.1 05:31:40 10° NE 05:35:58 30° E 05:40:17 10° SSE
Meteor 2-15 Rocket 4.5 05:30:41 10° N 05:36:47 89° E 05:42:51 10° S
CZ-4B R/B 3.2 05:34:58 10° SE 05:37:59 31° ENE 05:40:58 10° N
CZ-4B R/B 2.5 05:35:02 10° N 05:38:33 61° WNW 05:42:05 10° SSW
Cosmos 1408 Rocket 3.6 05:35:54 10° SSW 05:40:07 55° W 05:44:21 10° N
CZ-4C R/B 3.9 05:40:21 10° SSW 05:43:00 24° W 05:45:38 10° NW
DMSP B5D2-2 4.1 05:38:02 10° S 05:43:12 65° WSW 05:48:24 10° NNW
Cosmos 1656 Rocket 4.3 05:38:43 10° WSW 05:43:28 31° WNW 05:48:16 10° N
Cosmos 1503 Rocket 4.4 05:38:47 10° SW 05:43:41 39° WNW 05:48:41 10° N
Cosmos 783 Rocket 4.5 05:40:06 10° NNW 05:45:19 85° WSW 05:50:30 10° SSE
CZ-2C R/B 3.7 05:42:55 10° SSW 05:47:22 25° W 05:51:46 10° NW
Cosmos 1743 Rocket 3.6 05:43:01 10° S 05:47:25 90° SSW 05:51:49 10° N
USA 32 4.5 05:43:33 10° N 05:48:48 68° E 05:54:00 10° SSE
EP 2 4.5 05:46:32 10° SW 05:49:45 77° NW 05:52:43 10° NNE
FAST Rocket 3.8 05:47:14 10° S 05:49:53 74° W 05:52:38 10° N
Cosmos 1943 Rocket 4.0 05:48:47 10° NW 05:49:55 11° NW 05:51:03 10° NNW
AQUARIUS 4.3 05:48:14 10° NNE 05:52:45 81° ESE 05:57:14 10° S
Cosmos 1777 Rocket 4.0 05:50:08 10° SSW 05:55:19 69° WNW 06:00:33 10° NNE
PSLV R/B 4.3 05:53:58 10° NNE 05:57:54 68° ESE 06:01:53 10° S
Cosmos 1515 Rocket 3.9 05:55:06 10° NNW 05:59:14 43° W 06:03:20 10° SSW
SL-8 R/B 3.9 05:54:46 10° NW 05:59:33 68° NNE 06:04:19 10° ESE
Cosmos 1602 3.9 05:56:06 10° S 05:59:53 77° E 06:03:42 10° N
CORIOLIS 4.3 05:56:40 10° NNE 06:02:09 89° ESE 06:07:36 10° SSW
Meteor 1-27 Rocket 3.8 05:56:50 10° NNW 06:02:26 65° W 06:08:06 10° S
